Flag for U.S.A. Weather past 2 weeks in Scranton, Pennsylvania, U.S.A.

Now
42 °F

Light rain. Low clouds.


Feels Like: 39 °F
Forecast: 40 / 47 °F
Wind: 5 mph from North

Location: Barre - Scranton - Wilkes-Barre / Scranton International Airport

Current Time: Dec 23, 2014 at 12:21:54 AM

Latest Report: Dec 22, 2014 at 11:54 PM


Visibility: 7 mi

Pressure: 30.11 "Hg

Humidity: 82%

Dew point: 37 °F

Location of ScrantonLocation

Historic Weather in Scranton — Graph

°F

Scranton temperature yesterday

Maximum temperature yesterday: 43 °F (at 12:54 PM)
Minimum temperature yesterday: 30 °F (at 12:54 AM)
Average temperature yesterday: 36 °F

Past Weeks' High & Low Weather Summary

 TemperatureHumidityPressure
High46 °F (Dec 17, 11:54 AM)93% (Dec 9, 12:54 PM)30.64 "Hg (Dec 9, 12:54 PM)
Low24 °F (Dec 8, 1:54 AM)29% (Dec 8, 7:54 AM)29.65 "Hg (Dec 11, 1:02 AM)
Average34 °F73%30.05 "Hg
* Reported Dec 7 9:54 PM — Dec 22 9:54 PM, Scranton, Weather by CustomWeather, © 2014

Note: Actual official high and low records may vary slightly from our data, if they occured in-between our weather recording intervals... More about our weather records

Advertising

Scranton weather history for previous 24 hours

 ConditionsComfort  
Time TempWeatherWind HumidityBarometerVisibility
9:54 PM
Dec 22
40 °FOvercast.3 mph83%30.14 "Hg10 mi
8:54 PM38 °FOvercast.5 mph90%30.17 "Hg8 mi
7:54 PM38 °FLow clouds.5 mph86%30.17 "Hg10 mi
6:54 PM38 °FLow clouds.5 mph86%30.17 "Hg7 mi
5:54 PM38 °FLow clouds.6 mph79%30.18 "Hg10 mi
4:54 PM40 °FOvercast.No wind70%30.19 "Hg10 mi
3:54 PM40 °FScattered clouds.12 mph63%30.19 "Hg10 mi
2:54 PM40 °FSunny.10 mph60%30.18 "Hg10 mi
1:54 PM40 °FScattered clouds.9 mph63%30.19 "Hg10 mi
12:54 PM43 °FPassing clouds.5 mph58%30.21 "Hg10 mi
11:54 AM40 °FOvercast.8 mph63%30.24 "Hg10 mi
10:54 AM37 °FOvercast.7 mph70%30.29 "Hg10 mi
9:54 AM35 °FOvercast.12 mph70%30.30 "Hg10 mi
8:54 AM34 °FOvercast.3 mph73%30.29 "Hg10 mi
7:54 AM32 °FOvercast.5 mph75%30.29 "Hg10 mi
6:54 AM31 °FOvercast.No wind76%30.29 "Hg9 mi
5:54 AM31 °FOvercast.No wind73%30.28 "Hg9 mi
4:54 AM31 °FOvercast.3 mph69%30.29 "Hg10 mi
3:54 AM30 °FOvercast.No wind72%30.31 "Hg10 mi
2:54 AM31 °FOvercast.No wind69%30.31 "Hg10 mi
1:54 AM30 °FOvercast.No wind72%30.31 "Hg10 mi
12:54 AM30 °FOvercast.No wind72%30.31 "Hg10 mi
Weather by CustomWeather, © 2014

See weather overviewHow to use our weather pages